User: anonymous   Login
Location: Caltech
(34.1382°N, 118.1253°W)
Time: 11:43:59
(UTC-07:00)
Language:

Cosmos 2333 Rocket - Orbit

View from above orbital plane
View from above orbital plane
View from above satellite
View from above satellite

Ground track
Ground track

The orbit data is extracted from the following two-line orbital elements,

1 24298U 96051B   18174.59502232 -.00000170 +00000-0 -65745-4 0  9996
2 24298 070.8345 359.2386 0016121 340.7631 019.2878 14.12429446124262
Epoch (UTC): 23 June 2018 14:16:49
Eccentricity: 0.0016121
inclination: 70.8345°
perigee height: 839 km
apogee height: 863 km
right ascension of ascending node: 359.2386°
argument of perigee: 340.7631°
revolutions per day: 14.12429446
mean anomaly at epoch: 19.2878°
orbit number at epoch: 12426

The dashed part of the orbit path shows where the satellite is in the earth's shadow,  

DLR